Wetterdaten: aktuell Mittwoch, 12.05.2021 23:20
Datum Zeit Temp. A. Feuchte A. Luftdruck Regen Wind Taupunkt Windchill Windben
12.05.2021 23:20 9,9 C 84 % 1010,2 hPa 0,0 l/m 3,8 km/h (1 Bft) 7,3 C 9,9 C 8,0 km/h (2 Bft)
12.05.2021 23:15 10,0 C 84 % 1010,2 hPa 0,0 l/m 4,3 km/h (1 Bft) 7,4 C 10,0 C 8,0 km/h (2 Bft)
12.05.2021 23:10 10,1 C 84 % 1010,2 hPa 0,0 l/m 4,1 km/h (1 Bft) 7,5 C 10,1 C 8,0 km/h (2 Bft)
12.05.2021 23:05 10,1 C 84 % 1010,2 hPa 0,0 l/m 3,7 km/h (1 Bft) 7,5 C 10,1 C 6,4 km/h (2 Bft)
12.05.2021 23:00 10,1 C 84 % 1010,1 hPa 0,2 l/m 2,9 km/h (1 Bft) 7,5 C 10,1 C 9,7 km/h (2 Bft)
12.05.2021 22:55 10,1 C 84 % 1010,1 hPa 0,0 l/m 3,8 km/h (1 Bft) 7,5 C 10,1 C 6,4 km/h (2 Bft)
12.05.2021 22:50 10,1 C 84 % 1010,2 hPa 0,0 l/m 2,7 km/h (1 Bft) 7,5 C 10,1 C 6,4 km/h (2 Bft)
12.05.2021 22:45 10,2 C 84 % 1010,2 hPa 0,0 l/m 2,1 km/h (1 Bft) 7,6 C 10,2 C 4,8 km/h (1 Bft)
12.05.2021 22:40 10,2 C 84 % 1010,2 hPa 0,0 l/m 2,7 km/h (1 Bft) 7,6 C 10,2 C 4,8 km/h (1 Bft)
12.05.2021 22:35 10,2 C 84 % 1010,3 hPa 0,0 l/m 2,7 km/h (1 Bft) 7,6 C 10,2 C 6,4 km/h (2 Bft)
12.05.2021 22:30 10,2 C 84 % 1010,3 hPa 0,0 l/m 2,0 km/h (1 Bft) 7,6 C 10,2 C 4,8 km/h (1 Bft)
12.05.2021 22:25 10,3 C 84 % 1010,4 hPa 0,0 l/m 3,1 km/h (1 Bft) 7,7 C 10,3 C 6,4 km/h (2 Bft)
12.05.2021 22:20 10,3 C 84 % 1010,4 hPa 0,0 l/m 3,2 km/h (1 Bft) 7,7 C 10,3 C 4,8 km/h (1 Bft)
12.05.2021 22:15 10,3 C 84 % 1010,5 hPa 0,0 l/m 2,2 km/h (1 Bft) 7,7 C 10,3 C 4,8 km/h (1 Bft)
12.05.2021 22:10 10,3 C 84 % 1010,5 hPa 0,0 l/m 2,9 km/h (1 Bft) 7,7 C 10,3 C 6,4 km/h (2 Bft)
12.05.2021 22:05 10,4 C 84 % 1010,5 hPa 0,0 l/m 3,4 km/h (1 Bft) 7,8 C 10,4 C 6,4 km/h (2 Bft)
12.05.2021 22:00 10,4 C 84 % 1010,5 hPa 0,0 l/m 3,1 km/h (1 Bft) 7,8 C 10,4 C 6,4 km/h (2 Bft)
12.05.2021 21:55 10,4 C 84 % 1010,6 hPa 0,0 l/m 3,0 km/h (1 Bft) 7,8 C 10,4 C 6,4 km/h (2 Bft)
12.05.2021 21:50 10,4 C 84 % 1010,6 hPa 0,2 l/m 3,5 km/h (1 Bft) 7,8 C 10,4 C 6,4 km/h (2 Bft)
12.05.2021 21:45 10,4 C 84 % 1010,5 hPa 0,0 l/m 3,8 km/h (1 Bft) 7,8 C 10,4 C 11,3 km/h (2 Bft)
12.05.2021 21:40 10,5 C 84 % 1010,5 hPa 0,0 l/m 2,8 km/h (1 Bft) 7,9 C 10,5 C 6,4 km/h (2 Bft)
_ Min-Zeit 23:20 13:00 04:30 - 18:20 23:20 10:15 17:40
Minimum _ 9,9 C 74 % 1008,6 hPa - 1,4 km/h (1 Bft) 7,3 C 7,7 C 4,8 km/h (1 Bft)
_ Max-Zeit 14:36 00:45 21:35 15:40 10:15 12:45 14:36 11:50
Maximum _ 12,9 C 84 % 1010,6 hPa 0,4 l/m 12,7 km/h
SW (3 Bft)
9,5 C 12,9 C 25,7 km/h
W-NW (4 Bft)
Durchschnitt _ 11,6 C 81 % 1009,8 hPa #10,6 l/m 6,3 km/h (2 Bft) 8,5 C 10,9 C 13,4 km/h (3 Bft)